Miscellaneous Local Product
Issued by NWS Hastings, NE

Home | Current Version | Previous Version | Graphics & Text | Print | Product List | Glossary On
Versions: 1 2 3 4 5 6 7 8 9 10 11 12 13 14 15 16 17 18 19 20 21 22 23 24 25 26 27 28 29 30 31 32 33 34 35 36 37 38 39 40 41 42 43 44 45 46 47 48 49 50
000
AXUS43 KGID 041102
MISGRI

GID CWA HOURLY WEATHER ROUNDUP
NATIONAL WEATHER SERVICE HASTINGS NE
600 AM CDT WED MAY 04 2016

NOTE: "FAIR" INDICATES FEW OR NO CLOUDS BELOW 12,000 FEET WITH NO
SIGNIFICANT WEATHER AND/OR OBSTRUCTIONS TO VISIBILITY.

...SOUTH CENTRAL NEBRASKA...

CITY           SKY/WX    TMP DP  RH WIND       PRES   REMARKS
GRAND ISLAND   CLEAR     48  39  71 N12       30.04R
HASTINGS       CLEAR     47  40  76 N8        30.03R
KEARNEY        CLEAR     46  39  76 NW6       30.06R
ORD            CLEAR     42  39  89 NW8       30.06R
YORK           CLEAR     46  39  76 NW10      30.01S
AURORA         CLEAR     46  40  82 N10       30.03R
LEXINGTON      CLEAR     43  39  87 W9        30.08R
HOLDREGE       CLEAR     47  40  75 N7        30.05S
HEBRON         CLEAR     50  44  79 NW7       30.00R

...NEBRASKA PANHANDLE...

CITY           SKY/WX    TMP DP  RH WIND       PRES   REMARKS
CHADRON        CLEAR     40  36  86 SW6       30.15S
ALLIANCE       CLEAR     36  34  92 W7        30.15S WCI  30
SCOTTSBLUFF    CLEAR     43  38  82 NW10      30.18S
SIDNEY         CLEAR     37  34  89 NW9       30.19R WCI  30

...WESTERN AND NORTH CENTRAL NEBRASKA...

CITY           SKY/WX    TMP DP  RH WIND       PRES   REMARKS
VALENTINE      CLEAR     40  35  83 NW3       30.12R
AINSWORTH      CLEAR     43  37  79 NW5       30.10S
ONEILL         CLEAR     44  34  69 NW8       30.07S
BROKEN BOW     CLEAR     44  39  82 N9        30.08R
IMPERIAL       CLEAR     46  38  73 W9        30.13S
NORTH PLATTE   CLEAR     40  37  89 W5        30.11S
MCCOOK         CLEAR     42  37  82 NW7       30.10R

...EASTERN NEBRASKA...

CITY           SKY/WX    TMP DP  RH WIND       PRES   REMARKS
NORFOLK        CLEAR     45  34  65 NW9       30.01R
SO SIOUX CITY  CLEAR     42  35  76 N7        29.98R
TEKAMAH        CLEAR     45  36  70 N9        29.97R
COLUMBUS       CLEAR     43  30  61 NW9       30.02R
ALBION         CLEAR     38  33  82 NW7       30.04S WCI  33
OMAHA EPPLEY   CLEAR     48  37  65 N9        29.94R
MILLARD        CLEAR     51  36  54 NW6       29.94R
LINCOLN        CLEAR     51  38  60 NW7       29.99R
NEBRASKA CITY  CLEAR     51  36  55 N12       29.93R
BEATRICE       CLEAR     46  40  78 NW6       29.97R
FALLS CITY     CLEAR     49  41  74 NW9       29.91R

...NORTHERN KANSAS...

CITY           SKY/WX    TMP DP  RH WIND       PRES   REMARKS
GOODLAND       CLEAR     43  34  70 W9        30.15S
HILL CITY      CLEAR     46  39  76 W9        30.07R
NORTON         SUNNY     46  37  71 W13       30.06S
PHILLIPSBURG   CLEAR     48  41  76 NW10      30.06R
SMITH CENTER   CLEAR     45  41  87 NW9       30.04R
BELOIT         CLEAR     45  41  87 CALM      30.00S
HAYS           CLEAR     45  36  70 W8        30.03S
RUSSELL        CLEAR     46  42  86 W12       30.00S
CONCORDIA      CLEAR     50  42  74 NW8       29.99R
SALINA         CLEAR     50  44  80 NW7       29.99R
TOPEKA         CLEAR     52  44  74 W7        29.90S



USA.gov is the U.S. government's official web portal to all federal, state and local government web resources and services.